Powrót do katalogu

STARLINK-5555

AktywnyŁącznośćVLEO
NORAD 55386·PAYLOAD·🇺🇸 United States

Wystrzelony Jan 26, 2023 z Cape Canaveral Space Force Station

Loading…

Następne Przeloty (najbliższe 24 godziny)

TLE

ŚwieżeSource: CelesTrak SupGP

Epoka: Sep 14, 2026, 21:35 UTC

1 55386C 23013BH  26257.89979167 -.00096052  00000+0 -34791-2 0  2570
2 55386  43.0019 329.8592 0001730 267.4448 206.2496 15.27624403    14

Śledź STARLINK-5555 w czasie rzeczywistym z AllMySat

Download on the App Store